1494662401.15,6048,14.25,73240.0,6.75,4.93,5.01,0,*49
1494662402.33,6049,14.25,73240.5,6.75,5.23,5.15,0,*47
1494662403.53,6050,14.25,73238.3,6.75,5.11,5.05,0,*4F
1494662404.74,6051,14.25,73238.0,6.75,5.27,5.27,0,*4B
1494662405.94,6052,14.25,73238.8,6.75,5.51,5.49,0,*41
1494662407.13,6053,14.25,73240.3,6.75,5.59,5.51,0,*41
1494662408.33,6054,14.25,73242.0,6.81,6.11,6.11,0,*45
1494662409.55,6055,14.25,73238.5,6.81,6.29,6.39,0,*45
1494662410.76,6056,14.31,73240.3,6.81,6.03,6.03,0,*47
1494662412.01,6057,14.25,73240.0,6.81,5.93,5.93,0,*46
1494662413.22,6058,14.25,73238.3,6.83,5.81,5.77,0,*42
1494662414.4,6059,14.25,73242.0,6.83,6.11,6.11,0,*4A
1494662415.59,6060,14.25,73240.0,6.83,6.39,6.29,0,*41
1494662416.81,6061,14.25,73242.8,6.83,6.57,6.57,0,*41
1494662418.03,6062,14.25,73240.0,6.85,6.73,6.73,0,*44
1494662419.24,6063,14.25,73238.0,6.87,6.33,6.33,0,*47
1494662420.48,6064,14.25,73240.8,6.87,6.17,6.17,0,*40
1494662421.71,6065,14.25,73238.0,6.87,6.33,6.39,0,*4B
1494662422.94,6066,14.25,73242.8,6.89,6.65,6.69,0,*40
1494662424.16,6067,14.25,73236.0,6.89,6.65,6.69,0,*41
1494662425.4,6068,14.25,73236.5,6.91,6.69,6.73,0,*40
1494662426.64,6069,14.25,73238.3,6.91,6.57,6.69,0,*47
1494662427.87,6070,14.25,73240.5,6.93,6.51,6.57,0,*46
1494662429.09,6071,14.25,73238.3,6.93,6.43,6.39,0,*4C
1494662430.26,6072,14.25,73240.5,6.93,6.21,6.21,0,*42
1494662431.47,6073,14.25,73238.0,6.95,6.03,5.95,0,*49
1494662432.65,6074,14.25,73238.8,6.93,6.03,6.03,0,*44
1494662433.86,6075,14.25,73238.8,6.95,6.33,6.33,0,*43
1494662435.08,6076,14.25,73238.8,6.93,6.39,6.39,0,*46
1494662436.27,6077,14.25,73242.5,6.95,6.75,6.75,0,*41
1494662437.51,6078,14.25,73236.5,6.95,6.73,6.73,0,*4E
1494662438.76,6079,14.25,73240.5,6.95,6.61,6.65,0,*4B
1494662439.97,6080,14.25,73240.5,6.97,6.17,6.13,0,*4F
1494662441.15,6081,14.25,73240.3,6.97,6.33,6.33,0,*4A
1494662442.35,6082,14.25,73240.8,6.97,6.25,6.17,0,*48
1494662443.55,6083,14.25,73238.5,6.95,6.25,6.25,0,*4A
1494662444.79,6084,14.25,73242.0,6.95,6.53,6.53,0,*4D
1494662446.0,6085,14.25,73240.0,6.97,6.61,6.53,0,*4F
1494662447.17,6086,14.25,73240.8,6.97,6.33,6.29,0,*46
1494662448.39,6087,14.31,73246.0,6.97,6.17,6.17,0,*4C
1494662449.6,6088,14.25,73242.8,6.99,5.99,5.99,0,*4D
1494662450.78,6089,14.25,73242.3,6.97,6.03,6.03,0,*42
1494662451.96,6090,14.25,73240.3,6.97,6.03,6.03,0,*4A
1494662453.13,6091,14.25,73240.3,6.97,6.07,5.95,0,*43
1494662454.3,6092,14.25,73240.0,6.97,5.63,5.63,0,*48
1494662455.49,6093,14.25,73242.3,6.95,5.23,5.15,0,*4E
1494662456.67,6094,14.25,73244.3,6.93,5.11,5.07,0,*4D
1494662457.84,6095,14.25,73242.8,6.93,4.85,4.89,0,*47
1494662459.03,6096,14.25,73242.3,6.89,4.75,4.81,0,*48
1494662460.24,6097,14.25,73242.3,6.89,4.85,4.75,0,*4D
1494662461.44,6098,14.25,73244.3,6.85,4.33,4.31,0,*43
1494662462.64,6099,14.25,73244.8,6.85,4.67,4.57,0,*43
1494662463.84,6100,14.25,73244.0,6.85,4.71,4.57,0,*45
1494662465.04,6101,14.25,73242.8,6.83,4.79,4.85,0,*45
1494662466.24,6102,14.25,73244.5,6.81,4.85,4.85,0,*47
1494662467.4,6103,14.25,73240.8,6.79,4.57,4.45,0,*42
1494662468.63,6104,14.25,73242.8,6.75,3.79,3.71,0,*42
1494662469.83,6105,14.25,73240.8,6.75,3.97,3.89,0,*44
1494662471.03,6106,14.25,73246.0,6.71,3.97,3.93,0,*48
1494662472.2,6107,14.25,73244.8,6.71,3.93,3.81,0,*4E
1494662473.39,6108,14.25,73244.3,6.67,3.93,3.93,0,*45
1494662474.57,6109,14.25,73240.0,6.67,3.93,3.93,0,*44
1494662475.74,6110,14.25,73242.8,6.67,4.27,4.27,0,*4C
1494662476.96,6111,14.25,73240.0,6.65,4.31,4.19,0,*45
1494662478.16,6112,14.25,73244.3,6.65,4.41,4.41,0,*4C
1494662479.39,6113,14.25,73244.3,6.63,4.67,4.71,0,*4C
1494662480.59,6114,14.25,73240.0,6.61,4.53,4.53,0,*4E
1494662481.8,6115,14.25,73240.0,6.59,4.63,4.57,0,*43
1494662483.01,6116,14.25,73246.0,6.59,4.85,4.75,0,*48
1494662484.21,6117,14.25,73242.3,6.59,4.63,4.57,0,*41
1494662485.42,6118,14.25,73242.5,6.57,4.53,4.41,0,*44
1494662486.64,6119,14.25,73242.3,6.57,4.63,4.53,0,*45
1494662487.84,6120,14.25,73242.0,6.53,4.89,4.81,0,*40
1494662489.09,6121,14.25,73236.8,6.53,5.05,5.01,0,*4D
1494662490.29,6122,14.25,73240.8,6.53,5.15,5.15,0,*4A
1494662491.49,6123,14.25,73240.8,6.53,5.15,5.07,0,*48
1494662492.71,6124,14.25,73242.5,6.53,5.59,5.51,0,*44
1494662493.95,6125,14.25,73242.0,6.53,5.81,5.73,0,*40
1494662495.17,6126,14.25,73240.0,6.53,5.51,5.49,0,*47
1494662496.36,6127,14.25,73242.5,6.57,5.29,5.29,0,*4B
1494662497.58,6128,14.25,73242.8,6.53,5.41,5.27,0,*40
1494662498.83,6129,14.25,73242.3,6.53,5.81,5.85,0,*45
1494662500.07,6130,14.25,73242.0,6.53,5.73,5.73,0,*49
1494662501.27,6131,14.25,73242.8,6.53,5.63,5.63,0,*48
1494662502.51,6132,14.25,73242.0,6.53,5.81,5.81,0,*4B
1494662503.76,6133,14.25,73240.5,6.57,5.73,5.73,0,*4E
1494662505.0,6134,14.25,73244.3,6.57,5.77,5.77,0,*49
1494662506.25,6135,14.25,73242.0,6.57,5.89,5.89,0,*48
1494662507.51,6136,14.25,73246.8,6.57,6.43,6.35,0,*4A
1494662508.75,6137,14.25,73244.8,6.61,6.65,6.73,0,*48
1494662510.0,6138,14.25,73246.8,6.61,6.65,6.73,0,*47
1494662511.26,6139,14.25,73240.8,6.61,6.39,6.35,0,*4D
1494662512.45,6140,14.25,73242.8,6.63,5.51,5.41,0,*4C
1494662513.61,6141,14.25,73248.5,6.63,5.49,5.49,0,*4C
1494662514.84,6142,14.25,73244.3,6.63,5.81,5.81,0,*4F
1494662516.01,6143,14.25,73246.5,6.63,5.71,5.63,0,*4D
1494662517.21,6144,14.25,73244.5,6.63,5.15,5.05,0,*48
1494662518.46,6145,14.25,73242.5,6.61,4.75,4.67,0,*49
1494662519.69,6146,14.25,73242.8,6.61,4.63,4.57,0,*4E
1494662520.92,6147,14.25,73246.3,6.59,4.97,5.01,0,*4D
1494662522.13,6148,14.25,73244.3,6.61,6.03,6.07,0,*43
1494662523.36,6149,14.25,73246.0,6.59,5.93,5.93,0,*4D
1494662524.58,6150,14.25,73244.3,6.61,5.95,5.93,0,*48
1494662525.8,6151,14.25,73244.5,6.59,5.77,5.81,0,*4D
1494662527.0,6152,14.25,73244.0,6.61,5.95,6.07,0,*44
1494662528.21,6153,14.25,73246.5,6.61,6.03,5.95,0,*41
1494662529.46,6154,14.25,73246.3,6.61,6.17,6.17,0,*4A
1494662530.68,6155,14.25,73248.5,6.61,6.13,6.25,0,*4E
1494662531.92,6156,14.25,73242.3,6.61,6.29,6.35,0,*45
1494662533.13,6157,14.25,73246.8,6.61,6.03,6.03,0,*49
1494662534.35,6158,14.25,73246.0,6.63,5.73,5.73,0,*44
1494662535.57,6159,14.25,73242.8,6.61,5.77,5.71,0,*41
1494662536.79,6160,14.25,73244.8,6.61,5.27,5.23,0,*49
1494662538.02,6161,14.25,73244.0,6.59,4.79,4.75,0,*4B
1494662539.26,6162,14.25,73244.8,6.59,5.01,4.97,0,*4A
1494662540.49,6163,14.25,73242.8,6.57,4.97,4.85,0,*48
1494662541.71,6164,14.25,73244.8,6.57,4.97,4.85,0,*4F
1494662542.97,6165,14.25,73244.5,6.53,4.93,4.93,0,*49
1494662544.16,6166,14.25,73244.3,6.53,5.37,5.29,0,*45
1494662545.36,6167,14.25,73244.5,6.53,5.63,5.63,0,*4B
1494662546.61,6168,14.25,73242.3,6.53,5.89,5.81,0,*4C
1494662547.82,6169,14.25,73246.5,6.53,5.29,5.27,0,*4B
1494662549.02,6170,14.25,73242.8,6.51,5.15,5.15,0,*4F
1494662550.24,6171,14.25,73240.5,6.51,5.15,5.05,0,*4F
1494662551.44,6172,14.25,73244.3,6.51,5.41,5.41,0,*4D
1494662552.64,6173,14.25,73240.8,6.51,5.71,5.63,0,*4F
1494662553.82,6174,14.25,73242.0,6.49,5.59,5.59,0,*42
1494662555.02,6175,14.25,73242.3,6.51,5.95,5.95,0,*4A
1494662556.26,6176,14.25,73244.0,6.51,6.53,6.53,0,*49
1494662557.47,6177,14.25,73242.5,6.57,7.29,7.37,0,*41
1494662558.66,6178,14.25,73246.5,6.57,7.41,7.37,0,*40
1494662559.83,6179,14.25,73244.0,6.59,7.33,7.33,0,*4E
1494662561.08,6180,14.25,73246.8,6.61,7.15,7.19,0,*4F
1494662562.27,6181,14.25,73244.0,6.61,7.05,7.05,0,*42
1494662563.47,6182,14.25,73244.5,6.61,7.05,7.05,0,*41
1494662564.72,6183,14.25,73242.0,6.65,6.87,6.87,0,*44
1494662565.89,6184,14.25,73244.0,6.67,7.37,7.41,0,*40
1494662567.12,6185,14.25,73242.8,6.69,7.55,7.73,0,*4A
1494662568.32,6186,14.25,73244.5,6.69,7.51,7.55,0,*49
1494662569.57,6187,14.25,73244.0,6.69,7.61,7.61,0,*4C
1494662570.76,6188,14.25,73242.5,6.73,7.45,7.45,0,*48
1494662571.95,6189,14.25,73240.3,6.75,7.45,7.47,0,*4D
1494662573.15,6190,14.25,73244.0,6.79,7.47,7.51,0,*4C
1494662574.35,6191,14.25,73246.8,6.79,7.59,7.61,0,*41
1494662575.58,6192,14.25,73242.5,6.83,7.77,7.77,0,*4C
1494662576.75,6193,14.25,73242.8,6.83,7.55,7.55,0,*4D
1494662577.97,6194,14.25,73242.3,6.83,7.19,7.15,0,*46
1494662579.16,6195,14.25,73244.5,6.85,6.83,6.73,0,*42
1494662580.39,6196,14.25,73244.0,6.85,6.65,6.65,0,*4E
1494662581.59,6197,14.25,73246.5,6.87,6.33,6.33,0,*4D
1494662582.8,6198,14.25,73244.3,6.85,6.21,6.17,0,*45
1494662584.05,6199,14.25,73244.8,6.91,6.39,6.35,0,*48
1494662585.23,6200,14.25,73246.3,6.89,6.21,6.21,0,*4E
1494662586.46,6201,14.25,73244.0,6.89,5.89,5.77,0,*4E
1494662587.67,6202,14.25,73242.3,6.89,5.77,5.73,0,*48
1494662588.86,6203,14.25,73244.0,6.85,6.03,6.03,0,*41
1494662590.08,6204,14.25,73240.5,6.85,6.17,6.17,0,*46
1494662591.28,6205,14.25,73240.3,6.87,6.03,6.07,0,*41
1494662592.5,6206,14.25,73240.3,6.87,5.51,5.49,0,*4F
1494662593.69,6207,14.25,73246.3,6.85,5.05,4.81,0,*48
1494662594.86,6208,14.25,73244.0,6.85,4.33,4.23,0,*4B
1494662596.11,6209,14.25,73244.0,6.81,4.67,4.63,0,*4B
1494662597.34,6210,14.25,73244.0,6.83,4.79,4.75,0,*49
1494662598.55,6211,14.25,73246.0,6.81,4.31,4.27,0,*41
1494662599.77,6212,14.25,73244.5,6.79,3.71,3.49,0,*49
1494662600.98,6213,14.25,73244.8,6.75,3.75,3.59,0,*41
1494662602.18,6214,14.25,73246.3,6.71,4.07,3.97,0,*42
1494662603.37,6215,14.25,73242.5,6.69,4.53,4.49,0,*4F
1494662604.62,6216,14.25,73242.8,6.69,4.75,4.67,0,*44
1494662605.79,6217,14.25,73240.5,6.67,4.81,4.81,0,*48
1494662606.98,6218,14.25,73244.0,6.67,5.23,5.19,0,*4E
1494662608.15,6219,14.25,73240.5,6.67,5.95,5.95,0,*46
1494662609.37,6220,14.25,73240.8,6.71,6.61,6.69,0,*43
1494662610.59,6221,14.25,73240.0,6.67,6.57,6.57,0,*4D
1494662611.78,6222,14.25,73242.8,6.69,6.83,6.83,0,*40
1494662613.02,6223,14.25,73240.8,6.69,6.69,6.69,0,*41
1494662614.25,6224,14.25,73242.5,6.71,6.39,6.35,0,*43
1494662615.45,6225,14.25,73242.3,6.73,6.33,6.33,0,*4C
1494662616.68,6226,14.25,73240.5,6.71,6.47,6.39,0,*44
1494662617.9,6227,14.25,73244.3,6.71,6.47,6.39,0,*45
1494662619.1,6228,14.25,73242.0,6.73,6.07,6.03,0,*45
1494662620.33,6229,14.25,73242.3,6.73,5.95,5.93,0,*46
1494662621.53,6230,14.25,73240.0,6.75,6.17,6.11,0,*48
1494662622.71,6231,14.25,73244.5,6.75,6.21,6.21,0,*4F
1494662623.89,6232,14.25,73242.8,6.75,6.21,6.21,0,*4C
1494662625.08,6233,14.25,73240.0,6.75,6.87,6.79,0,*4C
1494662626.27,6234,14.25,73240.3,6.79,6.75,6.69,0,*4B
1494662627.49,6235,14.25,73240.0,6.75,6.53,6.51,0,*49
1494662628.72,6236,14.25,73240.3,6.81,6.69,6.69,0,*43
1494662629.91,6237,14.25,73242.0,6.83,7.29,7.29,0,*40
1494662631.12,6238,14.25,73242.5,6.83,7.47,7.47,0,*4F
1494662632.33,6239,14.25,73240.8,6.87,8.23,8.23,0,*4A
1494662633.58,6240,14.25,73240.5,6.87,8.47,8.59,0,*4B
1494662634.77,6241,14.25,73242.3,6.93,8.51,8.65,0,*47
1494662635.94,6242,14.25,73240.3,6.97,9.33,9.47,0,*44
1494662637.18,6243,14.25,73242.0,6.99,9.39,9.39,0,*48
1494662638.41,6244,14.25,73240.3,7.05,9.39,9.49,0,*4C
1494662639.61,6245,14.25,73242.5,7.09,9.47,9.57,0,*47
1494662640.82,6246,14.25,73242.3,7.13,10.17,10.41,0,*4D
1494662642.04,6247,14.25,73242.0,7.17,10.41,10.61,0,*49
1494662643.28,6248,14.25,73244.0,7.25,10.61,10.71,0,*44
1494662644.48,6249,14.25,73244.0,7.29,10.51,10.65,0,*4F
1494662645.73,6250,14.25,73246.0,7.31,10.41,10.61,0,*4B
1494662646.93,6251,14.25,73242.8,7.35,9.91,9.95,0,*48
1494662648.14,6252,14.25,73240.3,7.39,9.99,10.05,0,*7E
1494662649.35,6253,14.25,73246.0,7.43,10.09,10.13,0,*44
1494662650.58,6254,14.25,73240.0,7.47,9.85,9.91,0,*49
1494662651.83,6255,14.25,73242.3,7.49,9.49,9.57,0,*4C
1494662653.06,6256,14.25,73246.8,7.51,9.49,9.53,0,*42
1494662654.27,6257,14.25,73242.0,7.51,9.43,9.49,0,*42
1494662655.5,6258,14.25,73244.8,7.53,9.01,9.03,0,*47
1494662656.72,6259,14.25,73246.5,7.55,9.11,9.11,0,*42
1494662657.91,6260,14.25,73244.8,7.55,8.79,8.87,0,*49
1494662659.13,6261,14.25,73242.5,7.57,8.71,8.83,0,*46
1494662660.37,6262,14.25,73244.5,7.57,8.51,8.59,0,*40
1494662661.61,6263,14.25,73246.5,7.57,8.29,8.29,0,*49
1494662662.84,6264,14.25,73246.8,7.57,7.95,8.01,0,*4C
1494662664.05,6265,14.25,73242.3,7.59,8.29,8.29,0,*41
1494662665.27,6266,14.25,73244.8,7.59,8.29,8.41,0,*4C
1494662666.49,6267,14.25,73244.5,7.59,8.33,8.41,0,*46
1494662667.71,6268,14.25,73242.5,7.59,7.87,7.95,0,*4F
1494662668.94,6269,14.25,73248.0,7.59,7.77,7.77,0,*4D
1494662670.19,6270,14.25,73244.8,7.61,7.65,7.65,0,*4E
1494662671.43,6271,14.25,73244.8,7.57,7.15,7.23,0,*4F
1494662672.6,6272,14.25,73246.8,7.55,7.33,7.41,0,*4E
1494662673.78,6273,14.25,73240.0,7.55,7.59,7.59,0,*4A
1494662675.03,6274,14.25,73244.8,7.57,7.61,7.69,0,*47
1494662676.2,6275,14.25,73246.0,7.55,7.01,7.09,0,*44
1494662677.42,6276,14.25,73244.5,7.55,7.19,7.23,0,*46
1494662678.65,6277,14.25,73240.3,7.53,7.33,7.23,0,*49
1494662679.85,6278,14.25,73244.8,7.53,7.55,7.55,0,*47
1494662681.1,6279,14.25,73244.8,7.53,7.23,7.23,0,*46
1494662682.3,6280,14.25,73246.8,7.51,7.05,7.15,0,*43
1494662683.5,6281,14.25,73244.8,7.51,6.83,6.87,0,*47
1494662684.69,6282,14.25,73246.5,7.49,7.01,7.01,0,*49
1494662685.89,6283,14.25,73244.5,7.49,6.93,6.93,0,*48
1494662687.09,6284,14.25,73246.3,7.47,6.33,6.33,0,*41
1494662688.28,6285,14.25,73246.5,7.43,6.11,6.07,0,*43
1494662689.48,6286,14.25,73246.5,7.43,6.21,6.29,0,*4F
1494662690.66,6287,14.25,73244.8,7.41,6.33,6.29,0,*4F
1494662691.88,6288,14.25,73246.8,7.39,5.95,5.93,0,*42
1494662693.1,6289,14.25,73246.3,7.37,5.85,5.85,0,*4B
1494662694.3,6290,14.25,73246.0,7.35,5.67,5.63,0,*45
1494662695.52,6291,14.25,73246.5,7.35,5.51,5.45,0,*45
1494662696.69,6292,14.25,73246.5,7.29,5.49,5.49,0,*4E
1494662697.93,6293,14.25,73246.5,7.29,6.35,6.47,0,*4A
1494662699.1,6294,14.25,73246.3,7.29,6.75,6.75,0,*48
1494662700.27,6295,14.25,73246.5,7.29,6.93,6.83,0,*48
1494662701.44,6296,14.25,73244.3,7.29,6.93,6.83,0,*4B
1494662702.64,6297,14.25,73244.3,7.29,6.75,6.73,0,*4D
1494662703.87,6298,14.25,73246.8,7.29,6.47,6.35,0,*41
1494662705.09,6299,14.25,73244.0,7.27,5.99,5.93,0,*41
1494662706.29,6300,14.25,73248.0,7.25,5.99,5.93,0,*42
1494662707.46,6301,14.25,73248.3,7.21,5.59,5.49,0,*4C
1494662708.68,6302,14.25,73250.0,7.19,5.27,5.15,0,*44
1494662709.85,6303,14.25,73248.3,7.17,4.41,4.45,0,*4E
1494662711.08,6304,14.25,73246.8,7.15,3.89,3.79,0,*40
1494662712.27,6305,14.25,73244.3,7.11,4.27,4.23,0,*4E
1494662713.49,6306,14.25,73250.0,7.11,4.15,4.01,0,*4C
1494662714.69,6307,14.25,73248.3,7.07,4.11,3.93,0,*42
1494662715.89,6308,14.25,73246.3,7.03,4.19,4.15,0,*48
1494662717.09,6309,14.25,73246.3,6.99,4.11,3.89,0,*41
1494662718.29,6310,14.25,73250.0,6.97,4.01,3.81,0,*4E
1494662719.51,6311,14.25,73244.8,6.97,3.75,3.53,0,*44
1494662720.7,6312,14.25,73248.8,6.93,3.55,3.37,0,*43
1494662721.9,6313,14.25,73246.5,6.89,3.75,3.55,0,*4F
1494662723.12,6314,14.25,73246.5,6.87,3.81,3.53,0,*4B
1494662724.35,6315,14.25,73250.0,6.85,3.75,3.49,0,*48
1494662725.59,6316,14.25,73250.8,6.81,3.33,3.11,0,*40
1494662726.84,6317,14.25,73246.5,6.81,3.15,2.77,0,*44
1494662728.05,6318,14.25,73250.0,6.75,2.21,1.93,0,*4F
1494662729.27,6319,14.25,73250.8,6.71,1.93,1.67,0,*4B
1494662730.49,6320,14.25,73248.3,6.67,1.51,1.17,0,*4F
1494662731.75,6321,14.25,73248.8,6.61,1.17,0.83,0,*76
1494662732.95,6322,14.25,73246.8,6.59,1.29,0.97,0,*76
1494662734.2,6323,14.25,73248.3,6.53,1.37,1.09,0,*44
1494662735.42,6324,14.25,73248.0,6.49,1.59,1.43,0,*4E
1494662736.64,6325,14.25,73244.8,6.45,1.63,1.21,0,*4E
1494662737.86,6326,14.25,73244.3,6.45,1.85,1.63,0,*43
1494662739.06,6327,14.25,73242.3,6.41,2.31,2.09,0,*45
1494662740.29,6328,14.25,73244.0,6.39,3.15,2.99,0,*4B
1494662741.52,6329,14.25,73242.5,6.39,4.63,4.57,0,*48
1494662742.72,6330,14.25,73242.5,6.39,6.07,6.03,0,*43
1494662743.95,6331,14.25,73240.8,6.43,7.59,7.69,0,*48
1494662745.19,6332,14.25,73240.3,6.47,8.37,8.41,0,*4D
1494662746.44,6333,14.25,73240.8,6.57,8.37,8.51,0,*4C
1494662747.69,6334,14.25,73238.5,6.61,8.33,8.51,0,*4A
1494662748.88,6335,14.25,73242.8,6.65,8.65,8.65,0,*4B
1494662750.14,6336,14.25,73240.3,6.69,9.39,9.49,0,*43
1494662751.33,6337,14.25,73240.8,6.79,9.15,9.25,0,*47
1494662752.53,6338,14.25,73242.5,6.83,8.87,9.01,0,*41
1494662753.78,6339,14.25,73240.5,6.87,8.89,8.97,0,*44
1494662754.99,6340,14.25,73240.8,6.91,9.07,9.21,0,*46
1494662756.18,6341,14.25,73240.5,6.95,9.25,9.43,0,*47
1494662757.42,6342,14.25,73240.8,6.99,9.81,10.03,0,*7A
1494662758.64,6343,14.25,73242.0,7.05,10.17,10.31,0,*49
1494662759.81,6344,14.25,73240.8,7.09,9.63,9.75,0,*41
1494662761.03,6345,14.25,73238.8,7.13,9.15,9.19,0,*40
1494662762.26,6346,14.25,73238.0,7.15,8.87,8.93,0,*4C
1494662763.46,6347,14.25,73238.8,7.17,8.87,8.97,0,*4B
1494662764.66,6348,14.25,73242.8,7.27,9.25,9.29,0,*4A
1494662765.9,6349,14.25,73240.3,7.27,9.39,9.39,0,*47
1494662767.07,6350,14.25,73240.8,7.29,9.95,9.95,0,*41
1494662768.31,6351,14.25,73242.8,7.35,10.13,10.27,0,*4A
1494662769.54,6352,14.25,73240.8,7.39,9.67,9.77,0,*43
1494662770.76,6353,14.25,73240.5,7.39,9.39,9.43,0,*4E
1494662771.96,6354,14.25,73242.5,7.43,9.25,9.25,0,*49
1494662773.16,6355,14.25,73240.3,7.47,9.95,10.13,0,*7A
1494662774.42,6356,14.25,73242.5,7.49,10.41,10.61,0,*43
1494662775.67,6357,14.25,73240.3,7.53,10.41,10.57,0,*4C
1494662776.9,6358,14.25,73244.0,7.59,10.65,10.75,0,*4F
1494662778.15,6359,14.25,73240.5,7.61,10.41,10.41,0,*44
1494662779.36,6360,14.25,73242.0,7.65,10.03,10.09,0,*40
1494662780.57,6361,14.25,73246.3,7.67,9.71,9.81,0,*46
1494662781.76,6362,14.25,73246.5,7.71,9.89,9.99,0,*4C
1494662782.96,6363,14.25,73244.3,7.75,10.43,10.65,0,*4C
1494662784.22,6364,14.25,73242.3,7.77,10.79,10.99,0,*43
1494662785.4,6365,14.25,73242.8,7.79,10.55,10.69,0,*4D
1494662786.59,6366,14.25,73246.8,7.81,9.61,9.63,0,*44
1494662787.81,6367,14.25,73244.0,7.85,10.23,10.33,0,*42
1494662789.05,6368,14.25,73246.0,7.87,10.19,10.13,0,*44
1494662790.27,6369,14.25,73246.3,7.89,10.31,10.47,0,*40
1494662791.49,6370,14.25,73242.3,7.93,10.95,11.13,0,*4D
1494662792.71,6371,14.25,73242.5,7.97,9.89,9.85,0,*4B
1494662793.93,6372,14.25,73242.3,8.01,10.27,10.33,0,*41
1494662795.19,6373,14.25,73242.0,8.03,10.71,10.79,0,*4F
1494662796.4,6374,14.25,73240.3,8.03,10.03,10.05,0,*46
1494662797.63,6375,14.25,73240.5,8.05,10.31,10.37,0,*41
1494662798.84,6376,14.25,73242.3,8.07,10.33,10.43,0,*41
1494662800.06,6377,14.25,73242.3,8.09,10.65,10.65,0,*49
1494662801.3,6378,14.25,73242.3,8.09,10.95,11.03,0,*48
1494662802.47,6379,14.25,73240.5,8.15,10.89,10.93,0,*41
1494662803.68,6380,14.25,73244.3,8.19,10.93,11.07,0,*4C
1494662804.88,6381,14.25,73240.0,8.23,11.07,11.21,0,*4C
1494662806.13,6382,14.25,73242.8,8.21,10.57,10.57,0,*49
1494662807.3,6383,14.25,73242.3,8.23,10.03,9.99,0,*71
1494662808.51,6384,14.25,73240.5,8.25,10.33,10.47,0,*48
1494662809.77,6385,14.25,73240.5,8.25,10.71,10.71,0,*4A
1494662810.98,6386,14.25,73244.3,8.27,11.41,11.51,0,*4A
1494662812.19,6387,14.25,73240.5,8.31,11.61,11.81,0,*43
1494662813.42,6388,14.25,73240.3,8.33,11.55,11.61,0,*47
1494662814.63,6389,14.25,73244.0,8.39,11.51,11.57,0,*4D
1494662815.86,6390,14.25,73240.8,8.45,11.67,11.79,0,*47
1494662817.12,6391,14.25,73244.3,8.47,11.67,11.79,0,*44
1494662818.36,6392,14.25,73246.0,8.49,11.23,11.37,0,*43
1494662819.62,6393,14.25,73244.5,8.51,11.27,11.27,0,*4E
1494662820.85,6394,14.25,73248.3,8.53,10.99,10.99,0,*4B
1494662822.09,6395,14.25,73244.0,8.55,10.69,10.71,0,*45
1494662823.35,6396,14.25,73244.0,8.55,10.65,10.57,0,*4E
1494662824.54,6397,14.25,73246.0,8.55,10.43,10.43,0,*4E
1494662825.8,6398,14.25,73246.0,8.59,9.85,9.85,0,*4D
1494662827.0,6399,14.25,73244.8,8.59,9.75,9.71,0,*48
1494662828.17,6400,14.25,73244.8,8.57,8.61,8.61,0,*45
1494662829.41,6401,14.25,73246.5,8.59,8.71,8.71,0,*4A
1494662830.64,6402,14.25,73244.3,8.55,8.89,8.79,0,*4A
1494662831.86,6403,14.25,73244.5,8.55,8.61,8.59,0,*4F
1494662833.05,6404,14.25,73246.5,8.53,8.45,8.59,0,*48
1494662834.28,6405,14.25,73246.8,8.53,7.87,7.83,0,*40
1494662835.53,6406,14.25,73242.8,8.51,8.51,8.55,0,*41
1494662836.69,6407,14.25,73244.5,8.49,8.65,8.65,0,*4D
1494662837.88,6408,14.25,73246.3,8.49,7.97,7.87,0,*43
1494662839.08,6409,14.25,73250.0,8.45,7.33,7.23,0,*4E
1494662840.28,6410,14.25,73246.3,8.45,7.01,6.91,0,*4F
1494662841.5,6411,14.25,73246.8,8.39,7.69,7.69,0,*4D
1494662842.66,6412,14.25,73244.8,8.39,8.45,8.45,0,*4E
1494662843.83,6413,14.25,73246.5,8.35,8.61,8.69,0,*4B
1494662845.05,6414,14.25,73248.3,8.35,8.59,8.59,0,*44
1494662846.25,6415,14.25,73246.3,8.33,8.01,7.97,0,*43
1494662847.47,6416,14.25,73250.3,8.35,8.51,8.59,0,*4E
1494662848.68,6417,14.25,73246.3,8.39,8.71,8.75,0,*4F
1494662849.9,6418,14.25,73244.5,8.33,8.47,8.45,0,*4C
1494662851.15,6419,14.25,73248.5,8.33,8.37,8.33,0,*4B
1494662852.33,6420,14.25,73248.3,8.31,8.01,7.87,0,*46
1494662853.55,6421,14.25,73248.0,8.33,7.97,7.87,0,*45
1494662854.79,6422,14.25,73248.0,8.29,7.87,7.83,0,*48
1494662856.03,6423,14.25,73248.5,8.29,8.33,8.29,0,*46
1494662857.23,6424,14.25,73246.0,8.25,8.01,8.01,0,*46
1494662858.42,6425,14.25,73246.3,8.25,7.59,7.55,0,*4B
1494662859.61,6426,14.25,73246.5,8.23,7.65,7.55,0,*41
1494662860.78,6427,14.25,73250.0,8.23,7.09,6.97,0,*45
1494662862.0,6428,14.25,73248.3,8.19,7.47,7.47,0,*45
1494662863.19,6429,14.25,73248.0,8.17,8.05,7.97,0,*4E
1494662864.45,6430,14.25,73248.8,8.17,7.77,7.61,0,*45
1494662865.67,6431,14.25,73250.5,8.17,7.77,7.55,0,*43
1494662866.89,6432,14.25,73248.3,8.17,7.65,7.55,0,*43
1494662868.11,6433,14.25,73250.5,8.11,7.11,7.09,0,*4E
1494662869.36,6434,14.25,73252.0,8.11,7.69,7.65,0,*4C
1494662870.58,6435,14.25,73250.3,8.11,7.87,7.79,0,*40
1494662871.81,6436,14.25,73250.3,8.07,7.87,7.83,0,*41
1494662873.01,6437,14.25,73254.3,8.07,7.51,7.41,0,*45
1494662874.23,6438,14.25,73248.3,8.07,7.29,7.19,0,*48
1494662875.48,6439,14.25,73250.8,8.03,7.23,7.15,0,*4B
1494662876.67,6440,14.25,73248.5,8.03,7.37,7.33,0,*44
1494662877.87,6441,14.25,73250.0,8.03,7.51,7.41,0,*40
1494662879.07,6442,14.25,73250.3,8.01,7.47,7.37,0,*47
1494662880.27,6443,14.25,73250.8,8.01,7.29,7.27,0,*4F
1494662881.52,6444,14.25,73248.0,7.99,6.65,6.65,0,*48
1494662882.71,6445,14.25,73250.5,7.97,6.83,6.73,0,*48
1494662883.94,6446,14.25,73254.3,7.95,6.93,6.91,0,*44
1494662885.16,6447,14.25,73248.0,7.95,7.15,7.05,0,*46
1494662886.36,6448,14.25,73250.8,7.93,6.93,6.91,0,*4C
1494662887.58,6449,14.25,73248.8,7.89,6.69,6.57,0,*49
1494662888.79,6450,14.25,73248.3,7.89,6.97,6.91,0,*4A
1494662890.01,6451,14.25,73248.8,7.87,6.83,6.73,0,*4C
1494662891.19,6452,14.25,73246.3,7.85,6.29,6.07,0,*4E
1494662892.4,6453,14.25,73250.0,7.83,6.21,6.03,0,*45
1494662893.58,6454,14.25,73246.5,7.81,6.21,6.03,0,*40
1494662894.79,6455,14.25,73248.8,7.77,6.33,6.25,0,*4F
1494662895.99,6456,14.25,73246.5,7.77,6.29,6.07,0,*47
1494662897.16,6457,14.25,73248.3,7.75,5.45,5.15,0,*4D
1494662898.34,6458,14.25,73250.5,7.73,4.41,4.19,0,*4C
1494662899.54,6459,14.25,73250.3,7.67,4.33,4.01,0,*44
1494662900.73,6460,14.25,73250.0,7.63,3.97,3.59,0,*49
1494662901.96,6461,14.25,73248.0,7.59,3.67,3.45,0,*43
1494662903.13,6462,14.25,73250.3,7.55,3.55,3.29,0,*47
1494662904.32,6463,14.25,73254.3,7.51,3.37,2.99,0,*4C
1494662905.54,6464,14.25,73248.0,7.47,3.53,3.29,0,*44
1494662906.76,6465,14.25,73248.0,7.43,3.19,2.91,0,*4D
1494662908.0,6466,14.25,73246.3,7.39,2.85,2.43,0,*48
1494662909.25,6467,14.25,73248.5,7.35,1.97,1.63,0,*44
1494662910.45,6468,14.25,73248.5,7.29,1.55,1.05,0,*48
1494662911.64,6469,14.25,73248.8,7.25,1.51,1.01,0,*45
1494662912.89,6470,14.25,73248.8,7.19,1.17,0.83,0,*7B
1494662914.12,6471,14.25,73246.3,7.15,1.13,1.05,0,*4D
1494662915.36,6472,14.25,73248.5,7.11,2.73,2.59,0,*45
1494662916.56,6473,14.25,73246.0,7.09,3.23,2.99,0,*45
1494662917.79,6474,14.25,73248.0,7.07,3.63,3.41,0,*4C
1494662918.99,6475,14.25,73244.3,7.03,4.19,3.93,0,*4C
1494662920.19,6476,14.25,73244.3,7.03,4.07,3.93,0,*40
1494662921.44,6477,14.25,73242.0,7.03,4.63,4.59,0,*42
1494662922.66,6478,14.25,73242.3,7.03,5.01,4.89,0,*45
1494662923.86,6479,14.25,73246.0,7.03,5.29,5.19,0,*46
1494662925.07,6480,14.25,73242.3,6.99,5.29,5.27,0,*4F
1494662926.3,6481,14.25,73242.3,6.99,5.77,5.67,0,*41
1494662927.52,6482,14.25,73242.3,6.99,6.11,6.17,0,*45
1494662928.72,6483,14.25,73244.8,6.99,6.97,7.05,0,*48
1494662929.89,6484,14.25,73244.3,7.05,9.07,9.21,0,*45
1494662931.12,6485,14.25,73242.0,7.13,10.23,10.37,0,*42
1494662932.35,6486,14.25,73240.5,7.19,10.43,10.65,0,*4A
1494662933.6,6487,14.25,73242.3,7.27,10.57,10.71,0,*46
1494662934.85,6488,14.25,73242.0,7.31,10.99,11.27,0,*4E
1494662936.09,6489,14.25,73244.5,7.39,10.85,10.95,0,*42
1494662937.33,6490,14.25,73242.3,7.43,10.13,10.19,0,*4C